This demonstration page uses our WeatherBlox Daily Observations layout. Learn more.

Left ArrowRight Arrow

Hourly Observations for October 29, 2018

Temp ( °F °C ) Dew Point ( °F °C ) Humidity (%) Winds ( mph kmh ) Pressure ( in mb ) Visibility ( mi km ) Precip ( " mm )
12:57 am 00:57 Clear 44 6.7 34 1.1 68 68 S 6 9 30.04 1017 10 16 0.00 0.00
1:57 am 01:57 Clear 43 6.1 33 0.6 68 68 SSE 6 9 30.01 1016 10 16 0.00 0.00
2:57 am 02:57 Clear 42 5.6 34 1.1 73 73 SSE 5 7 30.00 1016 10 16 0.00 0.00
3:57 am 03:57 Clear 40 4.4 34 1.1 79 79 S 7 11 29.98 1015 10 16 0.00 0.00
4:57 am 04:57 Clear 42 5.6 34 1.1 73 73 S 7 11 29.96 1015 10 16 0.00 0.00
5:57 am 05:57 Clear 41 5 34 1.1 76 76 S 8 13 29.95 1014 10 16 0.00 0.00
6:57 am 06:57 Clear 40 4.4 34 1.1 79 79 S 8 13 29.94 1014 10 16 0.00 0.00
7:57 am 07:57 Clear 39 3.9 34 1.1 82 82 S 9 15 29.93 1014 10 16 0.00 0.00
8:57 am 08:57 Sunny 43 6.1 36 2.2 76 76 S 10 17 29.92 1013 10 16 0.00 0.00
9:57 am 09:57 Sunny 52 11.1 38 3.3 59 59 SSW 17 28 29.91 1013 10 16 0.00 0.00
10:57 am 10:57 Sunny 58 14.4 41 5 53 53 SSW 20 31 29.88 1012 10 16 0.00 0.00
11:57 am 11:57 Sunny 60 15.6 43 6.1 53 53 SSW 15 24 29.85 1011 10 16 0.00 0.00
12:57 pm 12:57 Sunny 65 18.3 45 7.2 49 49 SSW 17 28 29.82 1010 10 16 0.00 0.00
1:57 pm 13:57 Sunny 66 18.9 46 7.8 49 49 SSW 14 22 29.78 1009 10 16 0.00 0.00
2:57 pm 14:57 Sunny 68 20 47 8.3 47 47 S 16 26 29.76 1008 10 16 0.00 0.00
3:57 pm 15:57 Sunny 68 20 47 8.3 47 47 SSW 16 26 29.74 1007 10 16 0.00 0.00
4:57 pm 16:57 Sunny 69 20.6 49 9.4 49 49 S 12 19 29.72 1007 10 16 0.00 0.00
5:57 pm 17:57 Sunny 65 18.3 49 9.4 56 56 S 12 19 29.72 1007 10 16 0.00 0.00
6:57 pm 18:57 Clear 59 15 49 9.4 69 69 SSE 8 13 29.73 1007 10 16 0.00 0.00
7:57 pm 19:57 Clear 57 13.9 49 9.4 74 74 S 9 15 29.74 1007 10 16 0.00 0.00
8:57 pm 20:57 Clear 56 13.3 49 9.4 77 77 S 8 13 29.73 1007 10 16 0.00 0.00
9:57 pm 21:57 Clear 52 11.1 47 8.3 83 83 S 7 11 29.73 1007 10 16 0.00 0.00
10:57 pm 22:57 Clear 50 10 46 7.8 86 86 Calm 29.73 1007 10 16 0.00 0.00
11:57 pm 23:57 Clear 53 11.7 48 8.9 83 83 NNW 3 6 29.78 1008 10 16 0.00 0.00

Powered by AerisWeather